ジェディキ彗星

179P/Jedicke (2022)

English version
Home page
Updated on April 15, 2023

---------------------------------------------------------------------

・ プロフィール

・ 写真集

・ 軌道要素

Epoch 2023 Feb. 25.0 TT = JDT 2460000.5
T 2022 May 30.84151 TT                                  Rudenko
q   4.1180948            (2000.0)            P               Q
n   0.06820703     Peri.  296.99116     +0.56067829     -0.76895999
a   5.9326666      Node   115.51432     +0.82755192     +0.50772306
e   0.3058611      Incl.   19.89756     +0.02824323     +0.38848144
P  14.5
>From 461 observations 2006 Oct. 22-2023 Mar. 19, mean residual 0".6.

・ 光度変化

        m1 = 3.0 + 5 logΔ + 20.0 log r

---------------------------------------------------------------------

軌道要素はM.P.E.C. 2023-F81に掲載されたものです。
光度グラフはComet for Windowsで作成したものです。

---------------------------------------------------------------------

Copyright(C) Seiichi Yoshida (comet@aerith.net). All rights reserved.